Home > Weather > Langley > Past weeks

Flag for Canada Weather for the Past 2 Weeks in Langley, British Columbia, Canada

Now
47 °F

Cool.


Feels Like: 47 °F
Forecast: 46 / 70 °F
Wind: 1 mph from Southeast

Location: P. Meadows Coastal Station

Current Time: May 5, 2016 at 7:33:05 AM

Latest Report: May 5, 2016 at 7:00 AM


Visibility: N/A

Pressure: 30.05 "Hg

Humidity: 95%

Dew Point: 46 °F

Location of LangleyLocation

Historic Weather in Langley — Graph

°F

Langley Temperature Yesterday

Maximum temperature yesterday: 63 °F (at 7:00 PM)
Minimum temperature yesterday: 51 °F (at 11:00 AM)
Average temperature yesterday: 56 °F

High & Low Weather Summary for the Past Weeks

 TemperatureHumidityPressure
High86 °F (May 2, 7:00 PM)96% (Apr 25, 7:00 AM)30.37 "Hg (Apr 25, 7:00 AM)
Low-17 °F (Apr 20, 6:00 AM)19% (May 2, 5:00 PM)29.59 "Hg (Apr 22, 5:00 AM)
Average57 °F70%30.02 "Hg
* Reported Apr 20 6:00 AM — May 5 6:00 AM, Langley, Weather by CustomWeather, © 2016

Note: Actual official high and low records may vary slightly from our data, if they occured in-between our weather recording intervals... More about our weather records

Advertising

Langley Weather History for the Previous 24 Hours

Scroll right to see more
 ConditionsComfort  
Time TempWeatherWind HumidityBarometerVisibility
6:00 AM
Thu, May 5
46 °FCool.No wind95%30.03 "HgN/A
5:00 AM46 °FCool.1 mph95%30.03 "HgN/A
4:00 AM47 °FCool.No wind94%30.02 "HgN/A
3:00 AM47 °FCool.No wind93%30.01 "HgN/A
2:00 AM47 °FCool.1 mph93%30.01 "HgN/A
1:00 AM49 °FCool.1 mph94%30.02 "HgN/A
12:00 AM51 °FCool.1 mph92%30.01 "HgN/A
11:00 PM
Wed, May 4
51 °FCool.1 mph91%30.00 "HgN/A
10:00 PM53 °FCool.1 mph87%30.00 "HgN/A
9:00 PM56 °FCool.2 mph80%29.99 "HgN/A
8:00 PM58 °FCool.5 mph76%29.98 "HgN/A
7:00 PM63 °FMild.1 mph58%29.98 "HgN/A
6:00 PM62 °FCool.1 mph61%30.00 "HgN/A
5:00 PM62 °FMild.2 mph64%30.01 "HgN/A
4:00 PM60 °FCool.3 mph65%30.03 "HgN/A
3:00 PM58 °FCool.2 mph75%30.04 "HgN/A
2:00 PM56 °FCool.2 mph80%30.06 "HgN/A
1:00 PM54 °FCool.1 mph84%30.07 "HgN/A
12:00 PM53 °FCool.2 mph87%30.07 "HgN/A
11:00 AM51 °FCool.No wind94%30.07 "HgN/A
10:00 AM52 °FCool.2 mph87%30.06 "HgN/A
9:00 AM52 °FCool.5 mph86%30.07 "HgN/A
8:00 AM52 °FCool.3 mph85%30.06 "HgN/A
7:00 AM53 °FCool.2 mph85%30.06 "HgN/A
Weather by CustomWeather, © 2016

See weather overviewHow to use our weather pages